Year,Month,Day,Hour,Minute,Value (Times are PST for temperature in C)
2017,04,24,00,00,8.00
2017,04,24,00,01,8.00
2017,04,24,00,02,7.90
2017,04,24,00,03,7.90
2017,04,24,00,04,7.90
2017,04,24,00,05,7.90
2017,04,24,00,06,7.90
2017,04,24,00,07,7.90
2017,04,24,00,08,7.90
2017,04,24,00,09,7.90
2017,04,24,00,10,7.90
2017,04,24,00,11,7.90
2017,04,24,00,12,7.90
2017,04,24,00,13,7.80
2017,04,24,00,14,7.80
2017,04,24,00,15,7.80
2017,04,24,00,16,7.80
2017,04,24,00,17,7.80
2017,04,24,00,18,7.80
2017,04,24,00,19,7.80
2017,04,24,00,20,7.80
2017,04,24,00,21,7.80
2017,04,24,00,22,7.80
2017,04,24,00,23,7.80
2017,04,24,00,24,7.80
2017,04,24,00,25,7.80
2017,04,24,00,26,7.80
2017,04,24,00,27,7.80
2017,04,24,00,28,7.80
2017,04,24,00,29,7.80
2017,04,24,00,30,7.80
2017,04,24,00,31,7.80
2017,04,24,00,32,7.80
2017,04,24,00,33,7.80
2017,04,24,00,34,7.80
2017,04,24,00,35,7.80
2017,04,24,00,36,7.80
2017,04,24,00,37,7.70
2017,04,24,00,38,7.70
2017,04,24,00,39,7.70
2017,04,24,00,40,7.70
2017,04,24,00,41,7.70
2017,04,24,00,42,7.70
2017,04,24,00,43,7.80
2017,04,24,00,44,7.80
2017,04,24,00,45,7.80
2017,04,24,00,46,7.80
2017,04,24,00,47,7.80
2017,04,24,00,48,7.80
2017,04,24,00,49,7.80
2017,04,24,00,50,7.70
2017,04,24,00,51,7.70
2017,04,24,00,52,7.70
2017,04,24,00,53,7.70
2017,04,24,00,54,7.70
2017,04,24,00,55,7.70
2017,04,24,00,56,7.70
2017,04,24,00,57,7.70
2017,04,24,00,58,7.70
2017,04,24,00,59,7.70
2017,04,24,01,00,7.70
2017,04,24,01,01,7.70
2017,04,24,01,02,7.70
2017,04,24,01,03,7.60
2017,04,24,01,04,7.60
2017,04,24,01,05,7.60
2017,04,24,01,06,7.60
2017,04,24,01,07,7.60
2017,04,24,01,08,7.60
2017,04,24,01,09,7.60
2017,04,24,01,10,7.60
2017,04,24,01,11,7.60
2017,04,24,01,12,7.60
2017,04,24,01,13,7.60
2017,04,24,01,14,7.60
2017,04,24,01,15,7.60
2017,04,24,01,16,7.60
2017,04,24,01,17,7.60
2017,04,24,01,18,7.60
2017,04,24,01,19,7.60
2017,04,24,01,20,7.60
2017,04,24,01,21,7.60
2017,04,24,01,22,7.60
2017,04,24,01,23,7.60
2017,04,24,01,24,7.60
2017,04,24,01,25,7.60
2017,04,24,01,26,7.60
2017,04,24,01,27,7.60
2017,04,24,01,28,7.70
2017,04,24,01,29,7.70
2017,04,24,01,30,7.70
2017,04,24,01,31,7.70
2017,04,24,01,32,7.70
2017,04,24,01,33,7.70
2017,04,24,01,34,7.70
2017,04,24,01,35,7.70
2017,04,24,01,36,7.70
2017,04,24,01,37,7.60
2017,04,24,01,38,7.60
2017,04,24,01,39,7.60
2017,04,24,01,40,7.60
2017,04,24,01,41,7.60
2017,04,24,01,42,7.60
2017,04,24,01,43,7.60
2017,04,24,01,44,7.60
2017,04,24,01,45,7.60
2017,04,24,01,46,7.60
2017,04,24,01,47,7.60
2017,04,24,01,48,7.60
2017,04,24,01,49,7.50
2017,04,24,01,50,7.50
2017,04,24,01,51,7.50
2017,04,24,01,52,7.50
2017,04,24,01,53,7.50
2017,04,24,01,54,7.50
2017,04,24,01,55,7.50
2017,04,24,01,56,7.40
2017,04,24,01,57,7.40
2017,04,24,01,58,7.50
2017,04,24,01,59,7.40
2017,04,24,02,00,7.40
2017,04,24,02,01,7.40
2017,04,24,02,02,7.40
2017,04,24,02,03,7.40
2017,04,24,02,04,7.40
2017,04,24,02,05,7.40
2017,04,24,02,06,7.40
2017,04,24,02,07,7.40
2017,04,24,02,08,7.40
2017,04,24,02,09,7.40
2017,04,24,02,10,7.30
2017,04,24,02,11,7.30
2017,04,24,02,12,7.30
2017,04,24,02,13,7.30
2017,04,24,02,14,7.30
2017,04,24,02,15,7.30
2017,04,24,02,16,7.30
2017,04,24,02,17,7.30
2017,04,24,02,18,7.30
2017,04,24,02,19,7.30
2017,04,24,02,20,7.30
2017,04,24,02,21,7.30
2017,04,24,02,22,7.30
2017,04,24,02,23,7.30
2017,04,24,02,24,7.30
2017,04,24,02,25,7.30
2017,04,24,02,26,7.30
2017,04,24,02,27,7.30
2017,04,24,02,28,7.30
2017,04,24,02,29,7.30
2017,04,24,02,30,7.30
2017,04,24,02,31,7.30
2017,04,24,02,32,7.30
2017,04,24,02,33,7.30
2017,04,24,02,34,7.30
2017,04,24,02,35,7.30
2017,04,24,02,36,7.30
2017,04,24,02,37,7.30
2017,04,24,02,38,7.30
2017,04,24,02,39,7.30
2017,04,24,02,40,7.20
2017,04,24,02,41,7.20
2017,04,24,02,42,7.20
2017,04,24,02,43,7.20
2017,04,24,02,44,7.20
2017,04,24,02,45,7.20
2017,04,24,02,46,7.20
2017,04,24,02,47,7.20
2017,04,24,02,48,7.20
2017,04,24,02,49,7.20
2017,04,24,02,50,7.20
2017,04,24,02,51,7.20
2017,04,24,02,52,7.20
2017,04,24,02,53,7.20
2017,04,24,02,54,7.20
2017,04,24,02,55,7.20
2017,04,24,02,56,7.20
2017,04,24,02,57,7.20
2017,04,24,02,58,7.20
2017,04,24,02,59,7.20
2017,04,24,03,00,7.20
2017,04,24,03,01,7.20
2017,04,24,03,02,7.20
2017,04,24,03,03,7.20
2017,04,24,03,04,7.20
2017,04,24,03,05,7.20
2017,04,24,03,06,7.20
2017,04,24,03,07,7.20
2017,04,24,03,08,7.20
2017,04,24,03,09,7.20
2017,04,24,03,10,7.20
2017,04,24,03,11,7.10
2017,04,24,03,12,7.10
2017,04,24,03,13,7.10
2017,04,24,03,14,7.10
2017,04,24,03,15,7.10
2017,04,24,03,16,7.10
2017,04,24,03,17,7.10
2017,04,24,03,18,7.10
2017,04,24,03,19,7.10
2017,04,24,03,20,7.00
2017,04,24,03,21,7.00
2017,04,24,03,22,7.00
2017,04,24,03,23,7.00
2017,04,24,03,24,7.00
2017,04,24,03,25,7.00
2017,04,24,03,26,7.00
2017,04,24,03,27,6.90
2017,04,24,03,28,6.90
2017,04,24,03,29,6.90
2017,04,24,03,30,6.90
2017,04,24,03,31,6.90
2017,04,24,03,32,6.90
2017,04,24,03,33,6.90
2017,04,24,03,34,6.90
2017,04,24,03,35,6.90
2017,04,24,03,36,6.90
2017,04,24,03,37,6.90
2017,04,24,03,38,6.90
2017,04,24,03,39,6.90
2017,04,24,03,40,6.90
2017,04,24,03,41,6.90
2017,04,24,03,42,6.90
2017,04,24,03,43,6.90
2017,04,24,03,44,6.90
2017,04,24,03,45,6.90
2017,04,24,03,46,6.90
2017,04,24,03,47,6.90
2017,04,24,03,48,6.90
2017,04,24,03,49,6.90
2017,04,24,03,50,6.90
2017,04,24,03,51,7.00
2017,04,24,03,52,7.00
2017,04,24,03,53,7.00
2017,04,24,03,54,7.00
2017,04,24,03,55,7.00
2017,04,24,03,56,7.00
2017,04,24,03,57,7.00
2017,04,24,03,58,7.00
2017,04,24,03,59,7.00
2017,04,24,04,00,7.00
2017,04,24,04,01,7.00
2017,04,24,04,02,7.00
2017,04,24,04,03,7.00
2017,04,24,04,04,7.00
2017,04,24,04,05,7.10
2017,04,24,04,06,7.10
2017,04,24,04,07,7.10
2017,04,24,04,08,7.10
2017,04,24,04,09,7.10
2017,04,24,04,10,7.20
2017,04,24,04,11,7.20
2017,04,24,04,12,7.20
2017,04,24,04,13,7.20
2017,04,24,04,14,7.20
2017,04,24,04,15,7.20
2017,04,24,04,16,7.20
2017,04,24,04,17,7.20
2017,04,24,04,18,7.20
2017,04,24,04,19,7.20
2017,04,24,04,20,7.20
2017,04,24,04,21,7.20
2017,04,24,04,22,7.20
2017,04,24,04,23,7.20
2017,04,24,04,24,7.20
2017,04,24,04,25,7.20
2017,04,24,04,26,7.20
2017,04,24,04,27,7.20
2017,04,24,04,28,7.20
2017,04,24,04,29,7.20
2017,04,24,04,30,7.20
2017,04,24,04,31,7.20
2017,04,24,04,32,7.20
2017,04,24,04,33,7.20
2017,04,24,04,34,7.20
2017,04,24,04,35,7.20
2017,04,24,04,36,7.20
2017,04,24,04,37,7.20
2017,04,24,04,38,7.20
2017,04,24,04,39,7.20
2017,04,24,04,40,7.20
2017,04,24,04,41,7.10
2017,04,24,04,42,7.10
2017,04,24,04,43,7.10
2017,04,24,04,44,7.10
2017,04,24,04,45,7.10
2017,04,24,04,46,7.10
2017,04,24,04,47,7.10
2017,04,24,04,48,7.10
2017,04,24,04,49,7.10
2017,04,24,04,50,7.10
2017,04,24,04,51,7.10
2017,04,24,04,52,7.10
2017,04,24,04,53,7.10
2017,04,24,04,54,7.10
2017,04,24,04,55,7.10
2017,04,24,04,56,7.10
2017,04,24,04,57,7.10
2017,04,24,04,58,7.10
2017,04,24,04,59,7.10
2017,04,24,05,00,7.10
2017,04,24,05,01,7.10
2017,04,24,05,02,7.10
2017,04,24,05,03,7.10
2017,04,24,05,04,7.00
2017,04,24,05,05,7.00
2017,04,24,05,06,7.00
2017,04,24,05,07,7.00
2017,04,24,05,08,7.00
2017,04,24,05,09,7.00
2017,04,24,05,10,7.00
2017,04,24,05,11,7.00
2017,04,24,05,12,7.00
2017,04,24,05,13,7.00
2017,04,24,05,14,7.00
2017,04,24,05,15,7.00
2017,04,24,05,16,7.00
2017,04,24,05,17,7.00
2017,04,24,05,18,7.00
2017,04,24,05,19,6.90
2017,04,24,05,20,7.00
2017,04,24,05,21,6.90
2017,04,24,05,22,6.90
2017,04,24,05,23,7.00
2017,04,24,05,24,7.00
2017,04,24,05,25,7.00
2017,04,24,05,26,7.00
2017,04,24,05,27,7.00
2017,04,24,05,28,7.00
2017,04,24,05,29,7.00
2017,04,24,05,30,7.00
2017,04,24,05,31,7.00
2017,04,24,05,32,7.00
2017,04,24,05,33,7.00
2017,04,24,05,34,7.00
2017,04,24,05,35,7.00
2017,04,24,05,36,7.00
2017,04,24,05,37,7.00
2017,04,24,05,38,7.10
2017,04,24,05,39,7.10
2017,04,24,05,40,7.00
2017,04,24,05,41,7.10
2017,04,24,05,42,7.10
2017,04,24,05,43,7.10
2017,04,24,05,44,7.10
2017,04,24,05,45,7.10
2017,04,24,05,46,7.10
2017,04,24,05,47,7.10
2017,04,24,05,48,7.10
2017,04,24,05,49,7.10
2017,04,24,05,50,7.10
2017,04,24,05,51,7.10
2017,04,24,05,52,7.10
2017,04,24,05,53,7.10
2017,04,24,05,54,7.10
2017,04,24,05,55,7.10
2017,04,24,05,56,7.10
2017,04,24,05,57,7.10
2017,04,24,05,58,7.10
2017,04,24,05,59,7.10
2017,04,24,06,00,7.10
2017,04,24,06,01,7.10
2017,04,24,06,02,7.10
2017,04,24,06,03,7.10
2017,04,24,06,04,7.20
2017,04,24,06,05,7.20
2017,04,24,06,06,7.20
2017,04,24,06,07,7.20
2017,04,24,06,08,7.20
2017,04,24,06,09,7.20
2017,04,24,06,10,7.20
2017,04,24,06,11,7.20
2017,04,24,06,12,7.20
2017,04,24,06,13,7.20
2017,04,24,06,14,7.20
2017,04,24,06,15,7.20
2017,04,24,06,16,7.20
2017,04,24,06,17,7.20
2017,04,24,06,18,7.20
2017,04,24,06,19,7.20
2017,04,24,06,20,7.20
2017,04,24,06,21,7.20
2017,04,24,06,22,7.20
2017,04,24,06,23,7.20
2017,04,24,06,24,7.20
2017,04,24,06,25,7.20
2017,04,24,06,26,7.20
2017,04,24,06,27,7.20
2017,04,24,06,28,7.20
2017,04,24,06,29,7.20
2017,04,24,06,30,7.20
2017,04,24,06,31,7.20
2017,04,24,06,32,7.20
2017,04,24,06,33,7.30
2017,04,24,06,34,7.30
2017,04,24,06,35,7.30
2017,04,24,06,36,7.30
2017,04,24,06,37,7.30
2017,04,24,06,38,7.30
2017,04,24,06,39,7.30
2017,04,24,06,40,7.40
2017,04,24,06,41,7.40
2017,04,24,06,42,7.40
2017,04,24,06,43,7.40
2017,04,24,06,44,7.40
2017,04,24,06,45,7.40
2017,04,24,06,46,7.40
2017,04,24,06,47,7.40
2017,04,24,06,48,7.40
2017,04,24,06,49,7.40
2017,04,24,06,50,7.50
2017,04,24,06,51,7.50
2017,04,24,06,52,7.50
2017,04,24,06,53,7.50
2017,04,24,06,54,7.60
2017,04,24,06,55,7.60
2017,04,24,06,56,7.60
2017,04,24,06,57,7.60
2017,04,24,06,58,7.60
2017,04,24,06,59,7.60
2017,04,24,07,00,7.70
2017,04,24,07,01,7.70
2017,04,24,07,02,7.70
2017,04,24,07,03,7.70
2017,04,24,07,04,7.70
2017,04,24,07,05,7.70
2017,04,24,07,06,7.70
2017,04,24,07,07,7.70
2017,04,24,07,08,7.70
2017,04,24,07,09,7.70
2017,04,24,07,10,7.70
2017,04,24,07,11,7.70
2017,04,24,07,12,7.70
2017,04,24,07,13,7.70
2017,04,24,07,14,7.70
2017,04,24,07,15,7.70
2017,04,24,07,16,7.70
2017,04,24,07,17,7.70
2017,04,24,07,18,7.70
2017,04,24,07,19,7.80
2017,04,24,07,20,7.80
2017,04,24,07,21,7.80
2017,04,24,07,22,7.80
2017,04,24,07,23,7.80
2017,04,24,07,24,7.80
2017,04,24,07,25,7.80
2017,04,24,07,26,7.80
2017,04,24,07,27,7.80
2017,04,24,07,28,7.80
2017,04,24,07,29,7.80
2017,04,24,07,30,7.80
2017,04,24,07,31,7.80
2017,04,24,07,32,7.80
2017,04,24,07,33,7.90
2017,04,24,07,34,7.90
2017,04,24,07,35,7.80
2017,04,24,07,36,7.80
2017,04,24,07,37,7.90
2017,04,24,07,38,7.90
2017,04,24,07,39,7.90
2017,04,24,07,40,7.90
2017,04,24,07,41,7.90
2017,04,24,07,42,7.90
2017,04,24,07,43,7.90
2017,04,24,07,44,7.90
2017,04,24,07,45,7.90
2017,04,24,07,46,7.90
2017,04,24,07,47,7.90
2017,04,24,07,48,7.90
2017,04,24,07,49,7.90
2017,04,24,07,50,7.90
2017,04,24,07,51,7.90
2017,04,24,07,52,7.90
2017,04,24,07,53,7.90
2017,04,24,07,54,7.90
2017,04,24,07,55,7.90
2017,04,24,07,56,7.90
2017,04,24,07,57,7.90
2017,04,24,07,58,8.00
2017,04,24,07,59,8.00
2017,04,24,08,00,8.00
2017,04,24,08,01,8.00
2017,04,24,08,02,7.90
2017,04,24,08,03,7.90
2017,04,24,08,04,7.90
2017,04,24,08,05,7.90
2017,04,24,08,06,7.90
2017,04,24,08,07,7.90
2017,04,24,08,08,7.90
2017,04,24,08,09,7.90
2017,04,24,08,10,8.00
2017,04,24,08,11,8.00
2017,04,24,08,12,8.00
2017,04,24,08,13,8.00
2017,04,24,08,14,8.00
2017,04,24,08,15,8.10
2017,04,24,08,16,8.10
2017,04,24,08,17,8.10
2017,04,24,08,18,8.10
2017,04,24,08,19,8.20
2017,04,24,08,20,8.20
2017,04,24,08,21,8.20
2017,04,24,08,22,8.20
2017,04,24,08,23,8.20
2017,04,24,08,24,8.20
2017,04,24,08,25,8.30
2017,04,24,08,26,8.30
2017,04,24,08,27,8.30
2017,04,24,08,28,8.30
2017,04,24,08,29,8.30
2017,04,24,08,30,8.30
2017,04,24,08,31,8.30
2017,04,24,08,32,8.30
2017,04,24,08,33,8.30
2017,04,24,08,34,8.30
2017,04,24,08,35,8.30
2017,04,24,08,36,8.30
2017,04,24,08,37,8.30
2017,04,24,08,38,8.30
2017,04,24,08,39,8.30
2017,04,24,08,40,8.30
2017,04,24,08,41,8.40
2017,04,24,08,42,8.40
2017,04,24,08,43,8.40
2017,04,24,08,44,8.40
2017,04,24,08,45,8.40
2017,04,24,08,46,8.40
2017,04,24,08,47,8.40
2017,04,24,08,48,8.40
2017,04,24,08,49,8.40
2017,04,24,08,50,8.40
2017,04,24,08,51,8.50
2017,04,24,08,52,8.60
2017,04,24,08,53,8.60
2017,04,24,08,54,8.70
2017,04,24,08,55,8.70
2017,04,24,08,56,8.60
2017,04,24,08,57,8.60
2017,04,24,08,58,8.60
2017,04,24,08,59,8.60
2017,04,24,09,00,8.60
2017,04,24,09,01,8.60
2017,04,24,09,02,8.60
2017,04,24,09,03,8.60
2017,04,24,09,04,8.60
2017,04,24,09,05,8.60
2017,04,24,09,06,8.70
2017,04,24,09,07,8.70
2017,04,24,09,08,8.70
2017,04,24,09,09,8.70
2017,04,24,09,10,8.70
2017,04,24,09,11,8.70
2017,04,24,09,12,8.60
2017,04,24,09,13,8.60
2017,04,24,09,14,8.60
2017,04,24,09,15,8.60
2017,04,24,09,16,8.70
2017,04,24,09,17,8.70
2017,04,24,09,18,8.70
2017,04,24,09,19,8.80
2017,04,24,09,20,8.80
2017,04,24,09,21,8.80
2017,04,24,09,22,8.90
2017,04,24,09,23,8.90
2017,04,24,09,24,8.90
2017,04,24,09,25,8.80
2017,04,24,09,26,8.80
2017,04,24,09,27,8.80
2017,04,24,09,28,8.80
2017,04,24,09,29,8.80
2017,04,24,09,30,8.80
2017,04,24,09,31,8.80
2017,04,24,09,32,8.80
2017,04,24,09,33,8.80
2017,04,24,09,34,8.80
2017,04,24,09,35,8.80
2017,04,24,09,36,8.90
2017,04,24,09,37,8.90
2017,04,24,09,38,8.90
2017,04,24,09,39,8.90
2017,04,24,09,40,8.90
2017,04,24,09,41,8.90
2017,04,24,09,42,8.90
2017,04,24,09,43,8.80
2017,04,24,09,44,8.80
2017,04,24,09,45,8.70
2017,04,24,09,46,8.70
2017,04,24,09,47,8.70
2017,04,24,09,48,8.60
2017,04,24,09,49,8.60
2017,04,24,09,50,8.60
2017,04,24,09,51,8.60
2017,04,24,09,52,8.60
2017,04,24,09,53,8.60
2017,04,24,09,54,8.60
2017,04,24,09,55,8.60
2017,04,24,09,56,8.50
2017,04,24,09,57,8.50
2017,04,24,09,58,8.40
2017,04,24,09,59,8.30
2017,04,24,10,00,8.30
2017,04,24,10,01,8.30
2017,04,24,10,02,8.30
2017,04,24,10,03,8.30
2017,04,24,10,04,8.30
2017,04,24,10,05,8.30
2017,04,24,10,06,8.30
2017,04,24,10,07,8.30
2017,04,24,10,08,8.40
2017,04,24,10,09,8.40
2017,04,24,10,10,8.40
2017,04,24,10,11,8.50
2017,04,24,10,12,8.50
2017,04,24,10,13,8.60
2017,04,24,10,14,8.70
2017,04,24,10,15,8.70
2017,04,24,10,16,8.70
2017,04,24,10,17,8.80
2017,04,24,10,18,8.80
2017,04,24,10,19,8.80
2017,04,24,10,20,8.80
2017,04,24,10,21,8.90
2017,04,24,10,22,8.90
2017,04,24,10,23,9.00
2017,04,24,10,24,9.10
2017,04,24,10,25,9.10
2017,04,24,10,26,9.10
2017,04,24,10,27,9.20
2017,04,24,10,28,9.20
2017,04,24,10,29,9.20
2017,04,24,10,30,9.10
2017,04,24,10,31,9.10
2017,04,24,10,32,9.10
2017,04,24,10,33,9.20
2017,04,24,10,34,9.20
2017,04,24,10,35,9.10
2017,04,24,10,36,9.20
2017,04,24,10,37,9.20
2017,04,24,10,38,9.30
2017,04,24,10,39,9.30
2017,04,24,10,40,9.40
2017,04,24,10,41,9.50
2017,04,24,10,42,9.50
2017,04,24,10,43,9.60
2017,04,24,10,44,9.70
2017,04,24,10,45,9.70
2017,04,24,10,46,9.60
2017,04,24,10,47,9.60
2017,04,24,10,48,9.50
2017,04,24,10,49,9.50
2017,04,24,10,50,9.50
2017,04,24,10,51,9.60
2017,04,24,10,52,9.60
2017,04,24,10,53,9.60
2017,04,24,10,54,9.60
2017,04,24,10,55,9.80
2017,04,24,10,56,9.90
2017,04,24,10,57,10.00
2017,04,24,10,58,10.20
2017,04,24,10,59,10.30
2017,04,24,11,00,10.40
2017,04,24,11,01,10.30
2017,04,24,11,02,10.30
2017,04,24,11,03,10.30
2017,04,24,11,04,10.30
2017,04,24,11,05,10.30
2017,04,24,11,06,10.40
2017,04,24,11,07,10.30
2017,04,24,11,08,10.30
2017,04,24,11,09,10.30
2017,04,24,11,10,10.30
2017,04,24,11,11,10.30
2017,04,24,11,12,10.30
2017,04,24,11,13,10.20
2017,04,24,11,14,10.20
2017,04,24,11,15,10.20
2017,04,24,11,16,10.20
2017,04,24,11,17,10.20
2017,04,24,11,18,10.20
2017,04,24,11,19,10.20
2017,04,24,11,20,10.10
2017,04,24,11,21,10.00
2017,04,24,11,22,9.90
2017,04,24,11,23,9.90
2017,04,24,11,24,10.00
2017,04,24,11,25,10.00
2017,04,24,11,26,10.10
2017,04,24,11,27,10.10
2017,04,24,11,28,10.20
2017,04,24,11,29,10.30
2017,04,24,11,30,10.30
2017,04,24,11,31,10.30
2017,04,24,11,32,10.30
2017,04,24,11,33,10.40
2017,04,24,11,34,10.40
2017,04,24,11,35,10.50
2017,04,24,11,36,10.60
2017,04,24,11,37,10.60
2017,04,24,11,38,10.70
2017,04,24,11,39,10.70
2017,04,24,11,40,10.80
2017,04,24,11,41,10.80
2017,04,24,11,42,10.80
2017,04,24,11,43,10.90
2017,04,24,11,44,11.00
2017,04,24,11,45,11.00
2017,04,24,11,46,11.10
2017,04,24,11,47,11.20
2017,04,24,11,48,11.20
2017,04,24,11,49,11.20
2017,04,24,11,50,11.30
2017,04,24,11,51,11.30
2017,04,24,11,52,11.30
2017,04,24,11,53,11.30
2017,04,24,11,54,11.40
2017,04,24,11,55,11.40
2017,04,24,11,56,11.30
2017,04,24,11,57,11.40
2017,04,24,11,58,11.30
2017,04,24,11,59,11.30
2017,04,24,12,00,11.30
2017,04,24,12,01,11.30
2017,04,24,12,02,11.30
2017,04,24,12,03,11.40
2017,04,24,12,04,11.40
2017,04,24,12,05,11.30
2017,04,24,12,06,11.30
2017,04,24,12,07,11.30
2017,04,24,12,08,11.30
2017,04,24,12,09,11.30
2017,04,24,12,10,11.30
2017,04,24,12,11,11.30
2017,04,24,12,12,11.30
2017,04,24,12,13,11.40
2017,04,24,12,14,11.40
2017,04,24,12,15,11.40
2017,04,24,12,16,11.50
2017,04,24,12,17,11.50
2017,04,24,12,18,11.60
2017,04,24,12,19,11.60
2017,04,24,12,20,11.50
2017,04,24,12,21,11.60
2017,04,24,12,22,11.70
2017,04,24,12,23,11.80
2017,04,24,12,24,12.00
2017,04,24,12,25,12.10
2017,04,24,12,26,12.10
2017,04,24,12,27,12.20
2017,04,24,12,28,12.20
2017,04,24,12,29,12.30
2017,04,24,12,30,12.30
2017,04,24,12,31,12.20
2017,04,24,12,32,12.20
2017,04,24,12,33,12.30
2017,04,24,12,34,12.40
2017,04,24,12,35,12.40
2017,04,24,12,36,12.40
2017,04,24,12,37,12.40
2017,04,24,12,38,12.40
2017,04,24,12,39,12.50
2017,04,24,12,40,12.50
2017,04,24,12,41,12.50
2017,04,24,12,42,12.60
2017,04,24,12,43,12.60
2017,04,24,12,44,12.70
2017,04,24,12,45,12.70
2017,04,24,12,46,12.70
2017,04,24,12,47,12.60
2017,04,24,12,48,12.50
2017,04,24,12,49,12.30
2017,04,24,12,50,12.10
2017,04,24,12,51,12.00
2017,04,24,12,52,12.00
2017,04,24,12,53,11.90
2017,04,24,12,54,11.90
2017,04,24,12,55,11.90
2017,04,24,12,56,12.00
2017,04,24,12,57,12.00
2017,04,24,12,58,12.00
2017,04,24,12,59,12.00
2017,04,24,13,00,11.90
2017,04,24,13,01,11.90
2017,04,24,13,02,11.80
2017,04,24,13,03,11.70
2017,04,24,13,04,11.70
2017,04,24,13,05,11.70
2017,04,24,13,06,11.70
2017,04,24,13,07,11.80
2017,04,24,13,08,11.90
2017,04,24,13,09,12.00
2017,04,24,13,10,12.10
2017,04,24,13,11,12.30
2017,04,24,13,12,12.40
2017,04,24,13,13,12.50
2017,04,24,13,14,12.70
2017,04,24,13,15,13.00
2017,04,24,13,16,13.10
2017,04,24,13,17,13.20
2017,04,24,13,18,13.20
2017,04,24,13,19,13.20
2017,04,24,13,20,13.20
2017,04,24,13,21,13.20
2017,04,24,13,22,13.20
2017,04,24,13,23,13.20
2017,04,24,13,24,13.30
2017,04,24,13,25,13.40
2017,04,24,13,26,13.60
2017,04,24,13,27,13.70
2017,04,24,13,28,13.70
2017,04,24,13,29,13.80
2017,04,24,13,30,13.80
2017,04,24,13,31,13.80
2017,04,24,13,32,13.80
2017,04,24,13,33,13.80
2017,04,24,13,34,13.90
2017,04,24,13,35,13.80
2017,04,24,13,36,13.70
2017,04,24,13,37,13.60
2017,04,24,13,38,13.60
2017,04,24,13,39,13.50
2017,04,24,13,40,13.30
2017,04,24,13,41,13.20
2017,04,24,13,42,13.20
2017,04,24,13,43,13.20
2017,04,24,13,44,13.30
2017,04,24,13,45,13.40
2017,04,24,13,46,13.40
2017,04,24,13,47,13.50
2017,04,24,13,48,13.60
2017,04,24,13,49,13.60
2017,04,24,13,50,13.60
2017,04,24,13,51,13.60
2017,04,24,13,52,13.70
2017,04,24,13,53,13.80
2017,04,24,13,54,14.00
2017,04,24,13,55,14.10
2017,04,24,13,56,14.20
2017,04,24,13,57,14.20
2017,04,24,13,58,14.30
2017,04,24,13,59,14.30
2017,04,24,14,00,14.30
2017,04,24,14,01,14.30
2017,04,24,14,02,14.30
2017,04,24,14,03,14.30
2017,04,24,14,04,14.30
2017,04,24,14,05,14.30
2017,04,24,14,06,14.40
2017,04,24,14,07,14.40
2017,04,24,14,08,14.40
2017,04,24,14,09,14.40
2017,04,24,14,10,14.30
2017,04,24,14,11,14.30
2017,04,24,14,12,14.30
2017,04,24,14,13,14.30
2017,04,24,14,14,14.30
2017,04,24,14,15,14.30
2017,04,24,14,16,14.30
2017,04,24,14,17,14.40
2017,04,24,14,18,14.40
2017,04,24,14,19,14.40
2017,04,24,14,20,14.40
2017,04,24,14,21,14.30
2017,04,24,14,22,14.20
2017,04,24,14,23,14.30
2017,04,24,14,24,14.30
2017,04,24,14,25,14.30
2017,04,24,14,26,14.30
2017,04,24,14,27,14.30
2017,04,24,14,28,14.30
2017,04,24,14,29,14.30
2017,04,24,14,30,14.30
2017,04,24,14,31,14.30
2017,04,24,14,32,14.40
2017,04,24,14,33,14.50
2017,04,24,14,34,14.60
2017,04,24,14,35,14.80
2017,04,24,14,36,14.80
2017,04,24,14,37,14.80
2017,04,24,14,38,14.80
2017,04,24,14,39,14.80
2017,04,24,14,40,14.80
2017,04,24,14,41,14.70
2017,04,24,14,42,14.80
2017,04,24,14,43,14.80
2017,04,24,14,44,14.80
2017,04,24,14,45,14.70
2017,04,24,14,46,14.70
2017,04,24,14,47,14.70
2017,04,24,14,48,14.70
2017,04,24,14,49,14.70
2017,04,24,14,50,14.70
2017,04,24,14,51,14.80
2017,04,24,14,52,14.90
2017,04,24,14,53,15.00
2017,04,24,14,54,15.10
2017,04,24,14,55,15.10
2017,04,24,14,56,15.20
2017,04,24,14,57,15.20
2017,04,24,14,58,15.30
2017,04,24,14,59,15.40
2017,04,24,15,00,15.40
2017,04,24,15,01,15.40
2017,04,24,15,02,15.40
2017,04,24,15,03,15.40
2017,04,24,15,04,15.40
2017,04,24,15,05,15.40
2017,04,24,15,06,15.40
2017,04,24,15,07,15.30
2017,04,24,15,08,15.30
2017,04,24,15,09,15.20
2017,04,24,15,10,15.20
2017,04,24,15,11,15.20
2017,04,24,15,12,15.10
2017,04,24,15,13,15.00
2017,04,24,15,14,14.90
2017,04,24,15,15,14.90
2017,04,24,15,16,14.90
2017,04,24,15,17,14.90
2017,04,24,15,18,15.00
2017,04,24,15,19,15.00
2017,04,24,15,20,15.10
2017,04,24,15,21,15.10
2017,04,24,15,22,15.20
2017,04,24,15,23,15.10
2017,04,24,15,24,15.10
2017,04,24,15,25,15.10
2017,04,24,15,26,15.10
2017,04,24,15,27,15.10
2017,04,24,15,28,15.20
2017,04,24,15,29,15.20
2017,04,24,15,30,15.30
2017,04,24,15,31,15.40
2017,04,24,15,32,15.40
2017,04,24,15,33,15.40
2017,04,24,15,34,15.30
2017,04,24,15,35,15.30
2017,04,24,15,36,15.30
2017,04,24,15,37,15.40
2017,04,24,15,38,15.40
2017,04,24,15,39,15.40
2017,04,24,15,40,15.40
2017,04,24,15,41,15.30
2017,04,24,15,42,15.40
2017,04,24,15,43,15.40
2017,04,24,15,44,15.40
2017,04,24,15,45,15.50
2017,04,24,15,46,15.60
2017,04,24,15,47,15.60
2017,04,24,15,48,15.60
2017,04,24,15,49,15.50
2017,04,24,15,50,15.60
2017,04,24,15,51,15.50
2017,04,24,15,52,15.50
2017,04,24,15,53,15.60
2017,04,24,15,54,15.70
2017,04,24,15,55,15.80
2017,04,24,15,56,15.80
2017,04,24,15,57,15.80
2017,04,24,15,58,15.70
2017,04,24,15,59,15.60
2017,04,24,16,00,15.60
2017,04,24,16,01,15.50
2017,04,24,16,02,15.50
2017,04,24,16,03,15.40
2017,04,24,16,04,15.40
2017,04,24,16,05,15.40
2017,04,24,16,06,15.40
2017,04,24,16,07,15.40
2017,04,24,16,08,15.40
2017,04,24,16,09,15.50
2017,04,24,16,10,15.50
2017,04,24,16,11,15.60
2017,04,24,16,12,15.60
2017,04,24,16,13,15.60
2017,04,24,16,14,15.60
2017,04,24,16,15,15.50
2017,04,24,16,16,15.50
2017,04,24,16,17,15.50
2017,04,24,16,18,15.60
2017,04,24,16,19,15.50
2017,04,24,16,20,15.50
2017,04,24,16,21,15.60
2017,04,24,16,22,15.60
2017,04,24,16,23,15.70
2017,04,24,16,24,15.80
2017,04,24,16,25,15.80
2017,04,24,16,26,15.80
2017,04,24,16,27,15.80
2017,04,24,16,28,15.80
2017,04,24,16,29,15.80
2017,04,24,16,30,15.80
2017,04,24,16,31,15.80
2017,04,24,16,32,15.80
2017,04,24,16,33,15.80
2017,04,24,16,34,15.80
2017,04,24,16,35,15.90
2017,04,24,16,36,16.00
2017,04,24,16,37,16.00
2017,04,24,16,38,16.00
2017,04,24,16,39,16.00
2017,04,24,16,40,16.00
2017,04,24,16,41,16.10
2017,04,24,16,42,16.00
2017,04,24,16,43,16.00
2017,04,24,16,44,16.00
2017,04,24,16,45,16.00
2017,04,24,16,46,16.00
2017,04,24,16,47,16.00
2017,04,24,16,48,15.90
2017,04,24,16,49,15.80
2017,04,24,16,50,15.80
2017,04,24,16,51,15.80
2017,04,24,16,52,15.80
2017,04,24,16,53,15.90
2017,04,24,16,54,15.90
2017,04,24,16,55,16.00
2017,04,24,16,56,15.90
2017,04,24,16,57,15.90
2017,04,24,16,58,15.90
2017,04,24,16,59,15.90
2017,04,24,17,00,15.90
2017,04,24,17,01,16.00
2017,04,24,17,02,16.10
2017,04,24,17,03,16.10
2017,04,24,17,04,16.10
2017,04,24,17,05,16.20
2017,04,24,17,06,16.20
2017,04,24,17,07,16.10
2017,04,24,17,08,16.00
2017,04,24,17,09,16.00
2017,04,24,17,10,16.00
2017,04,24,17,11,16.10
2017,04,24,17,12,16.10
2017,04,24,17,13,16.10
2017,04,24,17,14,16.10
2017,04,24,17,15,16.10
2017,04,24,17,16,16.10
2017,04,24,17,17,16.20
2017,04,24,17,18,16.20
2017,04,24,17,19,16.20
2017,04,24,17,20,16.30
2017,04,24,17,21,16.30
2017,04,24,17,22,16.20
2017,04,24,17,23,16.20
2017,04,24,17,24,16.10
2017,04,24,17,25,16.00
2017,04,24,17,26,16.00
2017,04,24,17,27,16.00
2017,04,24,17,28,16.00
2017,04,24,17,29,16.00
2017,04,24,17,30,16.00
2017,04,24,17,31,16.00
2017,04,24,17,32,16.10
2017,04,24,17,33,16.10
2017,04,24,17,34,16.10
2017,04,24,17,35,16.10
2017,04,24,17,36,16.10
2017,04,24,17,37,16.20
2017,04,24,17,38,16.20
2017,04,24,17,39,16.20
2017,04,24,17,40,16.20
2017,04,24,17,41,16.20
2017,04,24,17,42,16.10
2017,04,24,17,43,16.10
2017,04,24,17,44,16.10
2017,04,24,17,45,16.10
2017,04,24,17,46,16.00
2017,04,24,17,47,16.00
2017,04,24,17,48,16.10